Showing default

OPS 9431 (DSCS 2-1), 5587

Orbit data source: Space-Track

OPS 9431 (DSCS 2-1), 5587 is an American payload satellite in GEO that was launched on Wed, 03 Nov 1971 UTC via a TITAN IIIC launch vehicle from the Air Force Eastern Test Range (AFETR). Payload-class satellites include a variety of spacecraft equipped with specific instruments for various scientific and technological missions. These include communications satellites like Starlink; space stations such as the ISS; scientific satellites like the Hubble; Earth observation satellites from companies like Planet Labs, Umbra, and HawkEye 360; GPS; miniature CubeSats for education and research; and military/defense satellites.

Loading next visibility...
Identifier
5587, 1971-095A
Orbit
GEO
Country
Flag of USUS
Related business
Manufacturer
TRW
Mission
Non-operational spacecraft
Bus & Motor
DSCS II, Unknown motor
Mass
526 kg wet, ~500 kg dry
Launch date (UTC)
1971-11-03 (54 years ago)
Launch vehicle
TITAN IIIC
Launch site
Air Force Eastern Test Range (AFETR)
Object type
Payload
Rocket body
Debris
Shape & HBR
Unknown
Radar Cross Section
Large (>1 m²)

Expand to show TLE details & history
Last TLE update: 20 hours ago

TLE from 20 hours ago
0 OPS 9431 (DSCS 2-1)
1 05587U 71095A   25305.59032388 -.00000099  00000-0  00000-0 0  9999
2 05587   2.1707 261.1410 0007115 346.2132 264.1853  1.00282661119730
Epoch: 2025-11-01T14:10Z
TLE epoch observation values (Epoch: 2025-11-01T14:10:03.983Z)
Latitude
-2.06746°
Longitude
-102.22997°
Altitude
35,786.305 km
Speed
3.075 km/s
True Right ascension
10h 05m 37s
True Declination
-2° 03' 55"
Sunlit
Object was in daylight at epoch
Visualization orbit readout
Latitude
Unknown
Longitude
Unknown
Altitude
Unknown
Speed
Unknown
Apparent Right ascension
Unknown
Apparent Declination
Unknown
Sunlit
N/A
Visualization observer readout
Local Sidereal Time
05:54:16
Azimuth
Unknown
Elevation
Unknown
Doppler factor
Unknown
Orbital elements
Apogee altitude
35,814.613 km
Perigee altitude
35,754.616 km
Semi-major axis
42,162.752 km
Eccentricity
0.00071
Inclination
2.1707°
RAAN
261.141°
Arg. of periapsis
346.2132°
True anomaly
264.10419°
Mean anomaly
264.1853°
Eccentric anomaly
264.14475°
Mean motion
0.2507 °/min
Orbital period
1,435.99 mins
BSTAR
0
Loading maneuver chart data...
Computing Atmospheric mass density...
Loading historical data...
Loading historical data...
Loading historical data...
Loading historical data...
Loading historical data...
Loading historical data...
Loading historical data...
Other satellites on launch #95 in the year 1971 (1971-11-03 UTC)

Documentation

Showing up to 5 results
|